DWI1002 MDPC-TJSJ

Flight info

Callsign DWI1002
Flight time 0h 29m
Altitude 17000
Route MELLA2T MELLA G633 MAZ RTE12 JOSHE JOSHE3
Aircraft B38M/M-SDE1FGHILORVWXY/HB1

Departure

Time 2026-05-05 14:52
Airport Punta Cana International Airport (MDPC)

Arrival

Time 2026-05-05 15:21
Airport Luis Munoz Marin International Airport (TJSJ)
Time Latitude Longitude Altitude Speed Heading
2026-05-05 14:26 18.56427 -68.37177 53 ft 0 kts 175°
2026-05-05 14:44 18.56435 -68.37177 47 ft 2 kts 174°
2026-05-05 14:44 18.56451 -68.37179 49 ft 2 kts 175°
2026-05-05 14:45 18.56468 -68.37180 48 ft 2 kts 183°
2026-05-05 14:45 18.56482 -68.37174 51 ft 2 kts 235°
2026-05-05 14:45 18.56489 -68.37158 52 ft 2 kts 259°
2026-05-05 14:45 18.56489 -68.37153 51 ft 0 kts 263°
2026-05-05 14:48 18.56489 -68.37157 52 ft 3 kts 263°
2026-05-05 14:48 18.56483 -68.37220 50 ft 14 kts 264°
2026-05-05 14:48 18.56475 -68.37324 50 ft 11 kts 265°
2026-05-05 14:49 18.56467 -68.37413 53 ft 13 kts 265°
2026-05-05 14:49 18.56458 -68.37517 53 ft 16 kts 264°
2026-05-05 14:49 18.56448 -68.37639 53 ft 18 kts 264°
2026-05-05 14:49 18.56442 -68.37716 53 ft 0 kts 267°
2026-05-05 14:50 18.56441 -68.37737 53 ft 8 kts 272°
2026-05-05 14:50 18.56484 -68.37785 51 ft 11 kts 351°
2026-05-05 14:50 18.56566 -68.37789 51 ft 13 kts 356°
2026-05-05 14:50 18.56615 -68.37736 54 ft 4 kts 85°
2026-05-05 14:51 18.56616 -68.37727 54 ft 0 kts 84°
2026-05-05 14:51 18.56621 -68.37659 51 ft 33 kts 85°
2026-05-05 14:51 18.56666 -68.37161 54 ft 103 kts 85°
2026-05-05 14:51 18.56746 -68.36167 60 ft 167 kts 84°
2026-05-05 14:52 18.56885 -68.34908 856 ft 175 kts 88°
2026-05-05 14:52 18.56984 -68.33654 1972 ft 168 kts 89°
2026-05-05 14:52 18.57078 -68.32397 2817 ft 175 kts 88°
2026-05-05 14:52 18.57175 -68.31075 3490 ft 188 kts 90°
2026-05-05 14:53 18.56899 -68.29675 4026 ft 207 kts 119°
2026-05-05 14:53 18.55942 -68.28462 4680 ft 225 kts 134°
2026-05-05 14:53 18.54785 -68.27280 4879 ft 235 kts 135°
2026-05-05 14:53 18.53583 -68.26075 4919 ft 246 kts 135°
2026-05-05 14:54 18.52290 -68.24845 4946 ft 254 kts 140°
2026-05-05 14:54 18.50875 -68.23685 4965 ft 259 kts 141°
2026-05-05 14:54 18.49423 -68.22487 5171 ft 274 kts 141°
2026-05-05 14:54 18.47890 -68.21230 6032 ft 280 kts 142°
2026-05-05 14:55 18.46320 -68.20034 7122 ft 277 kts 144°
2026-05-05 14:55 18.45295 -68.19259 7876 ft 272 kts 144°
2026-05-05 14:55 18.43769 -68.18100 8902 ft 273 kts 144°
2026-05-05 14:55 18.42199 -68.16905 9728 ft 280 kts 144°
2026-05-05 14:56 18.40609 -68.15693 10527 ft 287 kts 144°
2026-05-05 14:56 18.38946 -68.14426 11063 ft 303 kts 144°
2026-05-05 14:56 18.37199 -68.13094 11622 ft 316 kts 144°
2026-05-05 14:56 18.35402 -68.11724 12380 ft 320 kts 144°
2026-05-05 14:57 18.33583 -68.10337 13159 ft 326 kts 144°
2026-05-05 14:57 18.31728 -68.08924 13922 ft 331 kts 144°
2026-05-05 14:57 18.29840 -68.07486 14588 ft 337 kts 145°
2026-05-05 14:57 18.27933 -68.06034 15262 ft 342 kts 145°
2026-05-05 14:58 18.25987 -68.04552 15924 ft 347 kts 145°
2026-05-05 14:58 18.24017 -68.03053 16572 ft 352 kts 145°
2026-05-05 14:58 18.22154 -68.01343 17032 ft 362 kts 131°
2026-05-05 14:58 18.20856 -67.99081 16987 ft 364 kts 111°
2026-05-05 14:59 18.20373 -67.96471 16989 ft 366 kts 91°
2026-05-05 14:59 18.20483 -67.93789 16987 ft 367 kts 87°
2026-05-05 14:59 18.20634 -67.91140 16986 ft 367 kts 86°
2026-05-05 14:59 18.20800 -67.88465 16981 ft 367 kts 86°
2026-05-05 15:00 18.20976 -67.85779 16990 ft 367 kts 86°
2026-05-05 15:00 18.21097 -67.83969 16992 ft 367 kts 86°
2026-05-05 15:00 18.21336 -67.80414 16989 ft 367 kts 86°
2026-05-05 15:00 18.21517 -67.77735 16995 ft 367 kts 86°
2026-05-05 15:01 18.21698 -67.75049 16987 ft 367 kts 86°
2026-05-05 15:01 18.21878 -67.72372 16997 ft 367 kts 86°
2026-05-05 15:01 18.22058 -67.69697 16994 ft 367 kts 86°
2026-05-05 15:01 18.22238 -67.67013 16990 ft 367 kts 86°
2026-05-05 15:02 18.22417 -67.64333 16997 ft 368 kts 86°
2026-05-05 15:02 18.22596 -67.61646 16985 ft 367 kts 86°
2026-05-05 15:02 18.22775 -67.58970 16994 ft 367 kts 86°
2026-05-05 15:02 18.22951 -67.56323 16994 ft 367 kts 86°
2026-05-05 15:03 18.23131 -67.53610 16992 ft 367 kts 86°
2026-05-05 15:03 18.23308 -67.50932 16994 ft 367 kts 86°
2026-05-05 15:03 18.23485 -67.48255 16995 ft 367 kts 86°
2026-05-05 15:03 18.23662 -67.45572 16995 ft 367 kts 86°
2026-05-05 15:04 18.23838 -67.42896 16985 ft 367 kts 86°
2026-05-05 15:04 18.24012 -67.40254 16988 ft 367 kts 86°
2026-05-05 15:04 18.24187 -67.37575 16989 ft 367 kts 86°
2026-05-05 15:04 18.24362 -67.34895 16996 ft 367 kts 86°
2026-05-05 15:05 18.24712 -67.29542 16997 ft 367 kts 86°
2026-05-05 15:05 18.24885 -67.26880 16999 ft 367 kts 86°
2026-05-05 15:05 18.25058 -67.24200 16998 ft 367 kts 86°
2026-05-05 15:06 18.25232 -67.21515 17000 ft 367 kts 86°
2026-05-05 15:06 18.25405 -67.18836 16988 ft 367 kts 86°
2026-05-05 15:06 18.25578 -67.16155 16994 ft 367 kts 86°
2026-05-05 15:06 18.25578 -67.13475 16997 ft 367 kts 92°
2026-05-05 15:07 18.25497 -67.10785 17003 ft 368 kts 92°
2026-05-05 15:07 18.25430 -67.08100 16995 ft 367 kts 91°
2026-05-05 15:07 18.25373 -67.05435 17028 ft 357 kts 91°
2026-05-05 15:07 18.25323 -67.02888 17054 ft 341 kts 91°
2026-05-05 15:08 18.25275 -67.00453 17059 ft 325 kts 91°
2026-05-05 15:08 18.25229 -66.98099 16940 ft 319 kts 91°
2026-05-05 15:08 18.25184 -66.95759 16677 ft 325 kts 91°
2026-05-05 15:08 18.25137 -66.93378 16386 ft 324 kts 91°
2026-05-05 15:09 18.25090 -66.90997 16077 ft 328 kts 91°
2026-05-05 15:09 18.25041 -66.88557 15322 ft 341 kts 91°
2026-05-05 15:09 18.24991 -66.86037 14625 ft 350 kts 92°
2026-05-05 15:10 18.24832 -66.78155 12659 ft 359 kts 92°
2026-05-05 15:10 18.24778 -66.75531 12227 ft 360 kts 92°
2026-05-05 15:10 18.24724 -66.72933 11811 ft 360 kts 92°
2026-05-05 15:11 18.24670 -66.70304 11383 ft 358 kts 92°
2026-05-05 15:11 18.24617 -66.67723 10949 ft 348 kts 92°
2026-05-05 15:11 18.24564 -66.65214 10560 ft 338 kts 92°
2026-05-05 15:11 18.24512 -66.62768 10202 ft 330 kts 92°
2026-05-05 15:12 18.24463 -66.60431 10128 ft 308 kts 92°
2026-05-05 15:12 18.24417 -66.58268 10119 ft 285 kts 93°
2026-05-05 15:12 18.24372 -66.56201 10082 ft 283 kts 92°
2026-05-05 15:12 18.24327 -66.54128 10014 ft 283 kts 92°
2026-05-05 15:13 18.24281 -66.52022 9990 ft 295 kts 92°
2026-05-05 15:13 18.24401 -66.49848 9888 ft 307 kts 76°
2026-05-05 15:13 18.25207 -66.47707 9943 ft 322 kts 68°
2026-05-05 15:13 18.26080 -66.45514 9829 ft 328 kts 69°
2026-05-05 15:14 18.26962 -66.43295 9531 ft 328 kts 69°
2026-05-05 15:14 18.27843 -66.41090 9251 ft 327 kts 69°
2026-05-05 15:14 18.28719 -66.38896 9034 ft 326 kts 69°
2026-05-05 15:14 18.29306 -66.37426 8899 ft 328 kts 69°
2026-05-05 15:15 18.29551 -66.36814 8795 ft 324 kts 69°
2026-05-05 15:15 18.30373 -66.34757 8173 ft 319 kts 69°
2026-05-05 15:15 18.31231 -66.32606 7420 ft 318 kts 69°
2026-05-05 15:15 18.32092 -66.30474 6692 ft 316 kts 69°
2026-05-05 15:16 18.32956 -66.28359 5934 ft 313 kts 69°
2026-05-05 15:16 18.33812 -66.26256 5170 ft 311 kts 69°
2026-05-05 15:16 18.34679 -66.24198 4637 ft 304 kts 68°
2026-05-05 15:16 18.35518 -66.22196 4171 ft 293 kts 68°
2026-05-05 15:17 18.36307 -66.20263 3737 ft 282 kts 70°
2026-05-05 15:17 18.37061 -66.18395 3368 ft 272 kts 70°
2026-05-05 15:17 18.37775 -66.16623 3013 ft 252 kts 70°
2026-05-05 15:17 18.38434 -66.14998 2682 ft 230 kts 71°
2026-05-05 15:18 18.39026 -66.13534 2402 ft 206 kts 71°
2026-05-05 15:18 18.39560 -66.12213 2132 ft 186 kts 71°
2026-05-05 15:18 18.40045 -66.11001 1910 ft 178 kts 70°
2026-05-05 15:18 18.40519 -66.09830 1659 ft 167 kts 71°
2026-05-05 15:19 18.40942 -66.08781 1474 ft 146 kts 71°
2026-05-05 15:19 18.41333 -66.07816 1317 ft 143 kts 72°
2026-05-05 15:19 18.41718 -66.06846 985 ft 139 kts 71°
2026-05-05 15:19 18.42095 -66.05916 1241 ft 143 kts 70°
2026-05-05 15:20 18.42479 -66.04959 955 ft 140 kts 72°
2026-05-05 15:20 18.42860 -66.04014 628 ft 139 kts 74°
2026-05-05 15:20 18.43221 -66.03079 371 ft 141 kts 69°
2026-05-05 15:20 18.43635 -66.02079 186 ft 155 kts 69°
2026-05-05 15:21 18.44051 -66.01075 27 ft 142 kts 72°
2026-05-05 15:21 18.44366 -66.00278 20 ft 84 kts 68°
2026-05-05 15:21 18.44433 -66.00020 20 ft 21 kts 96°
2026-05-05 15:21 18.44429 -65.99987 20 ft 3 kts 97°
2026-05-05 15:22 18.44420 -65.99963 21 ft 4 kts 138°